www.pogodaiklimat.ru

Погода и климат >> Архив погоды >> Россия >> Архангельская область >> Малые Кармакулы


АРХИВ ПОГОДЫ в Малых Кармакулах

Время (UTC), дата Ветер
(напр.,м/с)
 
Видим.   Явления Облачность Т
(С)
Тd
(С)
f
(%)
Тe
(С)
Тes
(С)
Комфортность P
(гПа)
Po
(гПа)
Тmin
(С)
Tmax
(С)
R
(мм)
R24
(мм)
S
(см)
09 17.03 Ю 8
{12}
4000 м дымка 10/10 240 м
[St]
-0.4 -1.0 96 -8 -8 1006.3 1004.5
12 17.03 Ю 9
{12}
4000 м дымка 10/10 240 м
[St]
-0.4 -1.0 96 -9 -9 1006.5 1004.7
15 17.03 Ю 9
{13}
10 км позёмок 10/10 270 м
[St]
-1.0 -1.7 95 -9 -9 1006.4 1004.6 -0.4
18 17.03 Ю 9
{14}
10 км позёмок 10/10 270 м
[St]
-1.2 -1.9 95 -10 -10 1006.0 1004.2
21 17.03 Ю 10
{16}
4000 м слаб. ливневой снег {метель} 10/10 270 м
[Cb cap]
-2.0 -2.6 96 -11 -11 1005.6 1003.8
00 18.03 Ю 9
{16}
4000 м слаб. ливневой снег {метель} 10/10 240 м
[Cb cap]
-2.1 -2.7 96 -11 -11 1005.3 1003.5
03 18.03 Ю 10
{14}
4000 м слаб. ливневой снег {метель} 10/10 210 м
[Cb cap]
-1.5 -2.0 96 -10 -10 1005.4 1003.6 -2.2 0.6
06 18.03 Ю 10
{14}
4000 м слаб. снег 10/8 210 м
[Frnb As op]
-1.8 -2.3 96 -11 -11 1005.5 1003.7
09 18.03 ЮЗ 8
{14}
4000 м слаб. снег {метель} 10/8 210 м
[Frnb As op]
-1.3 -1.8 96 -9 -9 1006.7 1004.9
12 18.03 З 5 4000 м слаб. снег {метель} 10/8 240 м
[Frnb As op]
-2.3 -2.9 96 -9 -9 1008.5 1006.7
15 18.03 З 6 20 км {снег} 10/6 570 м
[Sc Ac und]
-3.7 -5.2 89 -11 -11 1009.6 1007.8 -1.3 2
18 18.03 ЮЗ 4 4000 м слаб. ливневой снег 10/4 300 м
[Cb cap Ac und]
-3.7 -6.2 83 -10 -10 1010.4 1008.6
21 18.03 ЮЗ 1 20 км {ливн. осадки} 9/8 600 м
[Cu Sc Ac trans]
-4.3 -5.5 91 -7 -7 1011.9 1010.1
00 19.03 ЮВ 3 20 км {ливн. осадки} 4/0
[Ac trans Ci fib]
-6.5 -7.7 91 -12 -12 1012.9 1011.0
03 19.03 В 4 20 км 8/0
[Ac trans Ci fib]
-7.5 -8.8 90 -14 -14 1012.9 1011.0 -7.9 0.2
06 19.03 В 8
{11}
20 км 9/0
[Ac trans Ci fib]
-6.0 -7.9 86 -15 -15 1012.1 1010.2
09 19.03 В 13
{19}
10 км позёмок 10/3 300 м
[Sc Ac und]
-5.9 -7.0 92 -17 -17 1009.8 1007.9
12 19.03 В 19
{24}
4000 м метель 10/3 300 м
[Sc Ac und]
-6.8 -7.6 94 -20 -20 1007.8 1005.9
15 19.03 В 20
{27}
2000 м метель 10/4 300 м
[Sc Ac und]
-7.6 -8.5 93 -21 -21 1006.5 1004.7 -5.8
18 19.03 В 18
{25}
2000 м метель 10/6 540 м
[Sc Ac und]
-6.3 -7.1 94 -19 -19 1005.2 1003.4
21 19.03 В 17
{23}
4000 м метель 10/4 300 м
[Sc Ac As]
-8.0 -9.0 92 -21 -21 1002.7 1000.9
00 20.03 В 18
{23}
4000 м метель 10/8 480 м
[Sc Ac und]
-7.7 -8.7 93 -21 -21 1000.3 998.5
03 20.03 В 18
{23}
4000 м метель 10/4 300 м
[Cu hum Ac und]
-7.7 -9.1 90 -21 -21 999.7 997.9 -8.0
06 20.03 В 17
{23}
4000 м метель 8/4 300 м
[Sc Ac trans]
-6.9 -8.5 88 -19 -19 1000.0 998.2
09 20.03 В 4
{19}
4000 м слаб. ливневой снег {метель} 9/3 300 м
[Cb cap Ac trans]
-6.1 -8.0 86 -13 -12 1002.5 1000.7
12 20.03 ЮВ 2 20 км {ливн. осадки} 8/3 300 м
[Sc Ac trans Ci fib]
-5.0 -6.3 91 -9 -9 1002.3 1000.5
15 20.03 СВ 1 20 км 9/6 480 м
[Sc Ac trans]
-6.5 -8.1 88 -9 -9 1003.1 1001.3 -4.8 0.4
18 20.03 В 2 20 км 8/4 300 м
[Sc Ac trans]
-7.4 -9.1 88 -12 -12 1003.3 1001.5
21 20.03 В 4 20 км 6/3 600 м
[Sc Ac trans]
-7.6 -9.4 87 -14 -14 1003.2 1001.4
00 21.03 В 5 20 км 8/6 600 м
[Sc Ac trans]
-7.1 -8.8 88 -15 -15 1003.3 1001.5
03 21.03 В 4 20 км 8/3 600 м
[Sc Ac trans]
-9.3 -10.9 88 -16 -16 1003.6 1001.8 -9.3
06 21.03 В 5 20 км 4/1 600 м
[Sc Ac trans Ci fib]
-9.0 -10.6 88 -17 -16 1004.2 1002.4
09 21.03 ЮВ 4 20 км 8/1 600 м
[Sc Ac trans Ci fib]
-7.9 -10.1 84 -15 -14 1005.3 1003.5
12 21.03 В 4 20 км 6/0
[Ac trans Ci fib]
-7.2 -9.7 82 -14 -13 1005.6 1003.8
15 21.03 В 4 20 км 9/4 600 м
[Sc Ac trans Ci fib]
-8.1 -10.4 83 -15 -15 1005.8 1004.0 -7.2
18 21.03 ЮВ 3 20 км 4/3 600 м
[Sc Ac trans Ci fib]
-10.7 -12.7 85 -17 -17 1006.2 1004.4
21 21.03 ЮВ 5 20 км 10/4 600 м
[Sc Ac und]
-7.6 -9.8 84 -15 -15 1006.0 1004.2
00 22.03 В 6 4000 м слаб. ливневой снег 10/6 450 м
[Cb cap Ac und]
-6.7 -8.3 88 -15 -15 1006.0 1004.2
03 22.03 ЮВ 5 10 км слаб. ливневой снег 10/4 300 м
[Cb cap Ac und]
-6.1 -8.0 86 -13 -13 1006.4 1004.6 -10.8 0.0
06 22.03 В 7 4000 м слаб. ливневой снег 10/8 480 м
[Cb cap Ac und]
-5.3 -7.1 87 -14 -14 1006.6 1004.8
09 22.03 ЮВ 8
{11}
4000 м слаб. ливневой снег 10/6 480 м
[Cb cap Ac und]
-5.5 -6.9 90 -14 -14 1007.4 1005.5
12 22.03 ЮВ 4
{10}
10 км слаб. ливневой снег 10/4 300 м
[Cb cap Ac und]
-4.6 -6.6 86 -11 -11 1007.6 1005.8
15 22.03 ЮВ 5 20 км {ливн. осадки} 8/3 300 м
[Sc Ac trans Ci fib]
-5.2 -7.3 85 -12 -12 1007.3 1005.5 -4.6 0.3
18 22.03 ЮВ 7
{10}
20 км {ливн. осадки} 9/4 300 м
[Sc Ac trans]
-5.2 -6.9 88 -14 -14 1006.3 1004.5
21 22.03 Ю 8
{11}
4000 м слаб. ливневой снег 10/4 300 м
[Cb cap Ac und]
-5.1 -5.8 95 -14 -14 1004.6 1002.8
00 23.03 Ю 10
{14}
10 км позёмок {ливн. осадки} 10/10 540 м
[Sc]
-3.4 -3.8 97 -13 -13 1001.8 1000.0
03 23.03 ЮЗ 12
{18}
10 км позёмок 10/10 240 м
[St]
-1.9 -2.5 96 -12 -12 1000.2 998.4 -6.0 0.0
06 23.03 Ю 6
{13}
20 км {метель} 3/1 300 м
[Sc Ac trans]
-4.7 -6.4 88 -12 -12 1000.4 998.6
09 23.03 Ю 7
{10}
20 км 9/8 630 м
[Sc Ac trans]
-1.8 -2.3 96 -10 -9 998.7 996.9
12 23.03 Ю 8
{11}
10 км позёмок 10/4 600 м
[Sc Ac und]
-1.8 -2.3 96 -10 -10 996.4 994.6
15 23.03 Ю 13
{17}
10 км позёмок 10/4 300 м
[Sc Ac und]
-2.2 -3.1 94 -12 -12 994.1 992.3 -1.7
18 23.03 Ю 14
{19}
10 км позёмок 10/0
[Ac As]
-2.2 -2.5 98 -13 -13 990.1 988.3
21 23.03 Ю 15
{21}
4000 м метель 10/0
[Ac As]
-2.0 -2.6 96 -12 -12 985.5 983.8
00 24.03 Ю 12
{20}
4000 м метель 10/5 420 м
[Sc Ac As]
-1.6 -2.1 96 -11 -11 981.0 979.3
03 24.03 Ю 12
{18}
4000 м слаб. снег {метель} 10/3 200 м
[Frnb As op]
-1.4 -1.9 96 -11 -11 978.5 976.8 -2.2 0.3
06 24.03 Ю 13
{19}
4000 м слаб. снег {метель} 10/6 210 м
[Frnb As op]
-0.6 -1.0 97 -10 -10 976.8 975.1

 

Местоположение метеостанции Малые Кармакулы (Архангельская область, Россия): широта 72.36 долгота 52.71 высота над уровнем моря 14 м.

В архиве по умолчанию представлена погода в Малых Кармакулах за последнюю неделю. Архивные данные за месяц целиком и за предыдущие месяцы, начиная с января 2011 года, Вы можете получить, выбрав интересующий диапазон дат из раскрывающегося списка и нажав кнопку "Ввод!".


*Определитесь, кто Вы:
робот инопланетянин человек

Внимание! Время в таблицах - всемирное. Для получения местного времени необходимо прибавить поправку, которая равна 3 ч.

Смотрите также архив погоды в соседних городах и на ближайших метеорологических станциях:

Погода в Имени Федорова (Ненецкий АО, Россия) (310 км)
Погода на Колгуевом Острове (Ненецкий АО, Россия) (341 км)
Погода в Ходоварихе (Ненецкий АО, Россия) (383 км)
Погода на Мысе Белый Нос (Ненецкий АО, Россия) (409 км)
Погода в Бугрино (Ненецкий АО, Россия) (415 км)
Погода в Амдерме (Ненецкий АО, Россия) (433 км)
Погода в Сенгейском Шаре (Ненецкий АО, Россия) (435 км)
Погода на Мысе Константиновском (Ненецкий АО, Россия) (436 км)
Погода в Варандее (Ненецкий АО, Россия) (440 км)
Погода в Нарьян-Маре (Ненецкий АО, Россия) (526 км)

Пояснения к столбцам:

Ветер - указаны скорость ветра в м/с - средняя за 10 мин, порывы в срок и между сроками (в фигурных скобках) и направление, откуда дует ветер: С - северный, СВ - северо-восточный, В - восточный, ЮВ - юго-восточный, Ю - южный, ЮЗ - юго-западный, З - западный, СЗ - северо-западный.
Видимость - горизонтальная дальность видимости в метрах или километрах. При видимости от 1 до 10 км при отсутствии осадков обычно наблюдается дымка, при ухудшении видимости до 1 км и менее - туман. В сухую погоду видимость может ухудшаться дымом, пылью или мглою.
Явления - указаны атмосферные явления, наблюдавшиеся в срок или в последний час перед сроком; фигурными скобками обозначены явления, наблюдавшиеся между сроками (за 1-3 часа до срока); квадратными скобками обозначены град или гололедные отложения с указанием их диаметра в мм.
Облачность - указаны через наклонную черту общая и нижняя облачность в баллах и высота нижней границы облаков в метрах; квадратными скобками обозначены формы облаков: Ci - перистые, Cs - перисто-слоистые, Cc - перисто-кучевые, Ac - высококучевые, As - высокослоистые, Sc - слоисто-кучевые, Ns - слоисто-дождевые, Cu - кучевые, Cb - кучево-дождевые. Подробнее классификацию облаков см. в Атласе облаков (PDF).
T - Температура воздуха - температура, измеренная на высоте 2 м над землей.
Td - Температура точки росы - температура, при понижении до которой содержащийся в воздухе водяной пар достигнет насыщения.
f - Относительная влажность воздуха - влажноcть воздуха, измеренная на высоте 2 м над землей.
Te - Эффективная температура - температура, которую ощущает одетый по сезону человек в тени. Характеристика душности погоды. При расчете учитывается влияние влажности воздуха и скорости ветра на теплоощущения человека.
Tes - Эффективная температура на солнце - температура, которую ощущает человек, с поправкой на солнечный нагрев. Характеристика знойности погоды. Зависит от высоты солнца над горизонтом, облачности и скорости ветра. Ночью, в пасмурную погоду, а также при ветре 12 м/с и более поправка равна нулю.
P - Атмосферное давление - приведенное к уровню моря атмосферное давление.
Po - Атмосферное давление - измеренное на уровне метеостанции атмосферное давление.
Tmin - Минимальная температура - минимум температуры воздуха на высоте 2 м над землей.
Tmax - Максимальная температура - максимум температуры воздуха на высоте 2 м над землей.
R - Количество осадков - Количество выпавших осадков за период времени, мм. При наведении курсора мыши на число - период времени, за который выпало указанное количество осадков.
R24 - Количество осадков - Количество выпавших осадков за 24 часа, мм.
S - Снежный покров - Высота снежного покрова, см. При наведении курсора мыши на число - состояние снежного покрова и степень покрытия местности в баллах.